Home > Weather > Center > Past weeks

Flag for U.S.A. Weather for the Past 2 Weeks in Center, North Dakota, U.S.A.

Now
25 °F

Overcast.


Feels Like: 21 °F
Forecast: 20 / 32 °F
Wind: 3 mph from Northwest

Location: Bismarck Municipal Airport

Current Time: Feb 9, 2016 at 4:59:14 AM

Latest Report: Feb 9, 2016 at 3:52 AM


Visibility: 10 mi

Pressure: 30.34 "Hg (28.12 "Hg at 599m altitude)

Humidity: 53%

Dew point: 10 °F

Location of CenterLocation

Historic Weather in Center — Graph

°F

Center Temperature Yesterday

Maximum temperature yesterday: 37 °F (at 2:52 PM)
Minimum temperature yesterday: 25 °F (at 7:52 AM)
Average temperature yesterday: 30 °F

High & Low Weather Summary for the Past Weeks

 TemperatureHumidityPressure
High53 °F (Feb 6, 3:52 PM)89% (Jan 31, 12:52 AM)30.36 "Hg (Jan 31, 12:52 AM)
Low12 °F (Jan 26, 9:52 PM)30% (Feb 4, 3:52 PM)29.49 "Hg (Jan 30, 2:52 AM)
Average33 °F67%29.97 "Hg
* Reported Jan 25 3:52 AM — Feb 9 3:52 AM, Center, Weather by CustomWeather, © 2016

Note: Actual official high and low records may vary slightly from our data, if they occured in-between our weather recording intervals... More about our weather records

Advertising

Center Weather History for the Previous 24 Hours

 ConditionsComfort  
Time TempWeatherWind HumidityBarometerVisibility
3:52 AM
Tue, Feb 9
25 °FOvercast.3 mph53%30.34 "Hg10 mi
2:52 AM25 °FOvercast.8 mph50%30.34 "Hg10 mi
1:52 AM26 °FOvercast.9 mph52%30.36 "Hg10 mi
12:52 AM26 °FOvercast.9 mph57%30.34 "Hg10 mi
11:52 PM
Mon, Feb 8
25 °FOvercast.8 mph63%30.33 "Hg10 mi
10:52 PM25 °FPassing clouds.9 mph66%30.35 "Hg10 mi
9:52 PM26 °FPassing clouds.10 mph63%30.34 "Hg10 mi
8:52 PM28 °FPassing clouds.10 mph58%30.33 "Hg10 mi
7:52 PM31 °FMostly cloudy.13 mph57%30.33 "Hg10 mi
6:52 PM32 °FPassing clouds.13 mph54%30.32 "Hg10 mi
5:52 PM34 °FScattered clouds.17 mph52%30.32 "Hg10 mi
4:52 PM36 °FOvercast.23 mph48%30.30 "Hg10 mi
3:52 PM37 °FOvercast.23 mph46%30.29 "Hg10 mi
2:52 PM37 °FPartly sunny.23 mph44%30.30 "Hg10 mi
1:52 PM36 °FSunny.18 mph46%30.30 "Hg10 mi
12:52 PM35 °FSunny.22 mph48%30.33 "Hg10 mi
11:52 AM33 °FSunny.22 mph52%30.33 "Hg10 mi
10:52 AM32 °FSunny.21 mph50%30.36 "Hg10 mi
9:52 AM30 °FSunny.16 mph59%30.36 "Hg10 mi
8:52 AM27 °FSunny.16 mph66%30.35 "Hg10 mi
7:52 AM25 °FClear.18 mph72%30.33 "Hg10 mi
6:52 AM26 °FClear.16 mph69%30.33 "Hg10 mi
5:52 AM27 °FClear.20 mph66%30.30 "Hg10 mi
4:52 AM28 °FClear.21 mph64%30.30 "Hg10 mi
Weather by CustomWeather, © 2016

See weather overviewHow to use our weather pages